RH
81 80 80 80 87 84 84 85 82 87 90 88 86 86 85 81 80 75 77 80 82 72
85 84 78 73 78 85 83 86 87 88 91 91 86 85 88 86 84 79 75 73 76 81
87 87 83 81 80 72 83 86 91 92 92 92 90 88 92 87 85 82 81 75 73 75
90 87 89 85 79 77 74 87 94 93 94 93 90 88 90 89 86 86 83 82 79 75
90 86 92 92 85 80 78 80 82 94 95 93 90 87 89 90 88 89 88 85 84 81
80 88 91 92 89 86 80 78 86 80 89 94 91 91 87 89 89 89 86 85 86 83
81 82 86 88 88 87 83 80 80 84 84 84 91 88 90 88 88 88 86 85 84 83
78 79 79 91 87 85 88 83 79 84 84 82 89 89 91 89 90 91 90 87 84 84
81 81 83 89 90 89 87 89 84 82 84 86 87 99 100 95 92 90 90 90 87 83
78 84 90 82 89 90 92 90 91 87 83 82 84 100 100 100 92 92 90 88 86 85
80 86 89 89 90 91 93 93 92 91 88 86 81 98 100 100 95 93 92 89 87 85
84 87 90 94 93 92 94 96 94 92 94 92 88 100 100 100 97 96 92 87 85 85
86 90 94 96 96 97 94 94 95 95 95 98 92 100 100 99 96 98 95 90 86 100
87 89 93 97 97 97 98 99 98 98 97 96 97 96 100 100 97 96 96 94 90 87
Wind_Speed
17 10 9 9 5 8 8 10 11 11 10 11 10 8 10 9 9 10 9 9 7 8
13 13 12 13 8 5 8 8 11 12 12 12 13 12 11 9 12 11 11 12 10 7
13 13 12 10 12 14 7 7 11 12 13 13 13 14 13 12 10 12 10 10 12 11
11 12 13 11 12 12 11 7 9 13 14 13 14 14 13 13 13 14 13 13 14 16
11 12 13 13 12 11 12 10 10 10 13 14 14 15 16 17 14 16 16 16 15 16
14 12 13 12 12 13 13 13 10 12 12 14 16 16 17 18 17 17 18 17 16 17
14 12 14 15 14 13 14 14 14 13 14 13 16 17 17 17 17 18 17 18 18 17
15 15 16 15 15 14 14 14 14 14 14 15 15 14 17 18 19 18 18 18 18 18
15 15 15 16 16 15 15 13 14 14 14 14 11 17 20 20 17 19 19 18 17 18
15 12 12 16 16 15 15 14 15 16 16 16 15 18 23 24 18 17 18 18 16 15
12 12 13 13 15 13 12 15 15 16 16 16 16 17 20 24 22 17 18 18 19 18
11 12 10 10 8 10 10 10 11 12 13 15 15 16 19 17 17 18 18 17 17 18
9 9 9 7 7 6 5 9 8 9 9 12 14 14 18 16 12 15 14 16 16 17
8 8 9 6 6 8 7 3 4 6 6 7 9 9 12 13 12 11 12 12 12 12
Wind_Direction
193 199 203 195 189 195 192 187 199 199 183 187 189 193 192 196 199 197 202 211 211 213
201 203 206 215 209 188 197 186 194 190 193 185 187 192 190 201 202 204 213 218 221 223
207 212 211 199 204 216 203 185 185 192 195 191 188 194 188 196 201 204 210 214 222 230
217 221 219 211 205 212 217 193 183 192 194 197 196 194 197 202 201 209 213 217 218 224
219 226 225 221 213 210 214 205 205 185 195 200 200 199 208 210 205 204 210 214 217 224
320 237 230 231 219 212 221 213 205 213 198 199 202 204 208 215 212 209 211 214 214 221
304 302 250 227 224 223 214 220 217 211 215 208 204 207 210 214 216 220 221 220 219 220
296 293 292 227 225 221 220 214 216 215 217 217 206 207 207 212 214 217 222 221 220 220
285 281 279 244 220 220 219 217 219 220 213 215 208 203 204 209 214 218 220 222 221 223
284 292 306 253 218 215 214 212 218 223 227 226 218 203 204 205 214 217 220 220 224 227
302 302 301 301 213 210 207 210 214 222 224 228 231 211 213 210 216 221 222 220 221 226
295 295 301 312 292 201 201 212 218 223 223 225 233 217 210 207 220 227 227 225 224 225
316 306 295 293 301 318 241 209 223 233 231 224 228 224 216 208 217 227 229 232 231 223
350 339 342 317 342 3 337 272 256 249 253 246 234 228 219 207 225 229 229 228 231 233